{"data":{"norad_id":58646,"epoch":"2026-09-19T23:12:24.857568Z","epoch_age_seconds":60404,"freshness":"FRESH","line1":"1 58646U 23205B   26262.96695437  .00003509  00000+0  13312-3 0  9997","line2":"2 58646  97.3425 282.7867 0008035  27.6170 332.5494 15.27484268151970","mean_motion":15.27484268,"eccentricity":0.0008035,"inclination_deg":97.3425,"raan_deg":282.7867,"arg_perigee_deg":27.617,"mean_anomaly_deg":332.5494,"bstar":0.00013312,"rev_number":15197,"period_min":94.272656692265,"perigee_km":477.82257368995,"apogee_km":488.84896042661,"semimajor_km":6861.4727670583,"source":"CELESTRAK","updated_at":"2026-09-20T09:00:33.254274Z"}}